Waarnemingen

Advertentie
Mijn weer
Metz-Nancy-Lorraine, Frankrijk (7093): temperatuur & dauwpunt: 17.07.2017 10:00:00 - 23.07.2017 10:00:00 (CEST)Metz-Nancy-Lorraine, Frankrijk (7093): windsnelheid & windstoten: 17.07.2017 10:00:00 - 23.07.2017 10:00:00 (CEST)Metz-Nancy-Lorraine, Frankrijk (7093): windrichting: 17.07.2017 10:00:00 - 23.07.2017 10:00:00 (CEST)Metz-Nancy-Lorraine, Frankrijk (7093): luchtdruk: 17.07.2017 10:00:00 - 23.07.2017 10:00:00 (CEST)Metz-Nancy-Lorraine, Frankrijk (7093): zicht: 17.07.2017 10:00:00 - 23.07.2017 10:00:00 (CEST)Metz-Nancy-Lorraine, Frankrijk (7093): Zonneschijnduur: 17.07.2017 10:00:00 - 23.07.2017 10:00:00 (CEST)Metz-Nancy-Lorraine, Frankrijk (7093): neerslag: 17.07.2017 10:00:00 - 23.07.2017 10:00:00 (CEST)
Datum & Tijd tt [°C] td [°C] ff [km/u] ff [kn] fx [km/u] fx [kn] dd ppp [hPa] vv [km] sd [min] rr [mm]
23.07.2017 10:00:00 16,1 11,5 26 14 40 22 ZW 1017,8 29 5 0,0
23.07.2017 09:00:00 15,5 11,5 26 14 35 19 ZW 1017,7 29 21 0,0
23.07.2017 08:00:00 15,5 12,3 22 12 32 17 ZW 1017,3 60 39 0,0
23.07.2017 07:00:00 14,9 12,9 18 10 33 18 ZZW 1017,0 42 33 0,0
23.07.2017 06:00:00 15,0 13,4 21 11 30 16 ZW 1016,5 45 0 0,0
23.07.2017 05:00:00 15,6 14,1 21 11 33 18 ZW 1016,0 47 0 0,0
23.07.2017 04:00:00 15,7 14,2 22 12 31 17 ZW 1015,4 50 0 0,0
23.07.2017 03:00:00 16,2 14,6 21 11 31 17 ZW 1015,1 58 0 0,0
23.07.2017 02:00:00 16,5 15,0 18 10 29 16 ZZW 1015,0 55 0 0,0
23.07.2017 01:00:00 16,8 15,5 18 10 34 18 ZW 1014,2 56 0 1,4
23.07.2017 00:00:00 17,7 15,9 19 11 27 15 WZW 1014,5 57 0 0,0
22.07.2017 23:00:00 18,1 15,5 11 6 19 10 WZW 1014,3 57 0 0,2
22.07.2017 22:00:00 17,8 16,1 21 12 55 30 NW 1014,0 1,6 0 8,4
22.07.2017 21:00:00 24,7 13,3 17 9 25 13 Z 1010,6 51 24 0,0
22.07.2017 20:00:00 26,3 12,7 13 7 33 18 Z 1010,5 58 20 0,0
22.07.2017 19:00:00 27,6 12,8 20 11 35 19 Z 1010,9 50 43 0,0
22.07.2017 18:00:00 27,1 10,3 22 12 42 23 ZW 1011,4 53 39 0,0
22.07.2017 17:00:00 27,6 11,2 24 13 38 20 ZW 1011,8 49 50 0,0
22.07.2017 16:00:00 27,3 10,9 21 11 43 23 ZW 1011,9 43 48 0,0
22.07.2017 15:00:00 25,8 13,0 19 11 37 20 ZZW 1012,6 49 46 0,0
22.07.2017 14:00:00 24,5 14,9 14 8 28 15 ZZW 1012,9 54 25 0,0
22.07.2017 13:00:00 23,5 15,0 13 7 24 13 ZZW 1013,5 46 38 0,0
22.07.2017 12:00:00 22,9 14,5 10 6 24 13 ZW 1013,8 54 15 0,0
22.07.2017 11:00:00 21,0 13,7 10 5 21 11 WZW 1013,8 19 15 0,0
22.07.2017 10:00:00 20,1 16,3 8 4 23 13 ZW 1013,7 47 10 0,2
22.07.2017 09:00:00 19,1 16,7 9 5 19 11 ZW 1013,6 50 11 0,0
22.07.2017 08:00:00 18,8 16,8 10 6 18 10 Z 1013,2 32 34 0,0
22.07.2017 07:00:00 17,4 16,3 12 6 20 11 ZZO 1012,7 16 35 0,0
22.07.2017 06:00:00 16,5 15,7 17 9 23 13 ZZO 1012,5 16 0 0,0
22.07.2017 05:00:00 16,7 15,7 13 7 18 10 ZZO 1012,3 24 0 0,0
22.07.2017 04:00:00 17,3 15,8 12 7 21 12 ZO 1012,2 42 0 0,0
22.07.2017 03:00:00 17,7 15,9 15 8 22 12 ZZO 1012,3 59 0 0,0
22.07.2017 02:00:00 17,7 16,0 16 9 21 12 ZO 1012,1 49 0 0,0
22.07.2017 01:00:00 18,3 16,3 9 5 21 11 Z 1012,1 60 0 0,0
22.07.2017 00:00:00 18,1 16,6 17 9 30 16 ZO 1012,0 60 0 0,0
21.07.2017 23:00:00 18,3 17,1 19 10 50 27 ZZO 1011,6 50 0 0,4
21.07.2017 22:00:00 20,9 16,3 22 12 43 23 Z 1011,1 18 0 0,4
21.07.2017 21:00:00 24,9 12,8 13 7 17 9 WZW 1009,8 60 15 0,0
21.07.2017 20:00:00 25,9 12,4 9 5 14 8 Z 1009,9 60 5 0,0
21.07.2017 19:00:00 26,5 11,8 6 4 22 12 Z 1009,7 56 32 0,0
21.07.2017 18:00:00 26,7 11,6 10 6 20 11 ZW 1009,6 46 39 0,0
21.07.2017 17:00:00 26,4 12,1 9 5 22 12 ZZO 1010,2 60 41 0,0
21.07.2017 16:00:00 26,2 11,5 9 5 29 16 WZW 1011,0 45 30 0,0
21.07.2017 15:00:00 26,2 11,9 8 5 24 13 ZW 1011,6 59 49 0,0
21.07.2017 14:00:00 25,3 12,2 10 5 23 12 ZZW 1012,2 52 32 0,0
21.07.2017 13:00:00 24,9 11,5 8 4 32 17 - 1012,7 10 60 0,0
21.07.2017 12:00:00 23,6 11,6 8 4 24 13 ZZO 1013,3 52 56 0,0
21.07.2017 11:00:00 22,9 11,6 12 6 26 14 ZZO 1013,9 36 60 0,0
21.07.2017 10:00:00 21,1 14,3 7 4 16 9 ZO 1014,3 57 60 0,0
21.07.2017 09:00:00 19,3 14,1 7 4 16 9 OZO 1014,7 54 60 0,0
21.07.2017 08:00:00 18,5 14,0 4 2 7 4 O 1014,5 51 60 0,0
21.07.2017 07:00:00 14,6 12,8 4 2 16 9 ZZO 1015,1 36 39 0,0
21.07.2017 06:00:00 13,6 11,5 3 2 5 3 NNO 1015,2 40 0 0,0
21.07.2017 05:00:00 14,0 12,0 5 3 9 5 NO 1015,1 57 0 0,0
21.07.2017 04:00:00 15,2 12,5 0 0 5 3 N 1015,3 60 0 0,0
21.07.2017 03:00:00 14,9 11,9 3 1 7 4 WNW 1015,5 60 0 0,0
21.07.2017 02:00:00 16,1 12,6 6 3 10 5 WNW 1015,4 60 0 0,0
21.07.2017 01:00:00 16,4 12,0 4 2 14 8 NW 1015,4 60 0 0,0
21.07.2017 00:00:00 17,6 11,2 11 6 21 12 WZW 1015,1 60 0 0,0
20.07.2017 23:00:00 18,2 11,5 14 8 17 9 ZW 1014,5 60 0 0,0
20.07.2017 22:00:00 19,2 11,2 11 6 27 14 ZW 1013,6 19 2 0,0
20.07.2017 21:00:00 21,9 10,4 21 11 41 22 WZW 1013,0 53 60 0,0
20.07.2017 20:00:00 23,2 10,3 27 15 43 23 WZW 1012,7 45 26 0,0
20.07.2017 19:00:00 23,5 10,9 26 14 42 23 W 1012,4 48 11 0,0
20.07.2017 18:00:00 25,1 11,6 31 17 56 31 W 1012,0 20 53 0,0
20.07.2017 17:00:00 24,9 11,8 36 19 75 41 WZW 1011,8 21 44 0,0
20.07.2017 16:00:00 25,1 13,6 32 18 53 29 WZW 1012,0 25 36 0,0
20.07.2017 15:00:00 24,7 12,9 39 21 53 28 WZW 1011,8 27 54 0,0
20.07.2017 14:00:00 24,5 16,0 29 16 46 25 ZW 1011,6 34 49 0,0
20.07.2017 13:00:00 20,1 16,7 28 15 43 23 WZW 1012,5 6 17 0,4
20.07.2017 12:00:00 22,7 16,3 18 10 36 20 ZW 1012,1 36 22 0,0
20.07.2017 11:00:00 20,8 16,8 20 11 31 17 ZZW 1012,6 26 23 0,0
20.07.2017 10:00:00 19,2 17,9 20 11 30 16 ZZW 1012,6 34 2 0,2
20.07.2017 09:00:00 18,1 17,3 16 9 32 17 ZZW 1012,5 8 0 1,4
20.07.2017 08:00:00 17,8 16,7 19 10 36 19 Z 1012,2 24 0 0,2
20.07.2017 07:00:00 17,8 16,5 16 8 38 21 Z 1011,5 19 0 2,6
20.07.2017 06:00:00 19,4 16,4 18 10 30 16 Z 1011,3 59 0 0,0
20.07.2017 05:00:00 19,6 17,4 12 7 19 10 Z 1011,3 37 0 0,0
20.07.2017 04:00:00 19,7 17,7 16 9 29 16 Z 1011,0 32 0 0,0
20.07.2017 03:00:00 21,4 16,6 18 10 59 32 ZW 1011,0 18 0 1,8
20.07.2017 02:00:00 24,6 13,8 11 6 18 10 ZW 1010,0 59 0 0,0
20.07.2017 01:00:00 24,4 13,6 16 8 19 10 ZZW 1010,2 60 0 0,0
20.07.2017 00:00:00 25,7 13,5 12 7 20 11 ZZW 1009,9 58 0 0,0
19.07.2017 23:00:00 25,5 13,7 16 8 26 14 ZZW 1009,6 60 0 0,0
19.07.2017 22:00:00 27,1 13,4 17 9 26 14 ZZW 1009,6 41 0 0,0
19.07.2017 21:00:00 28,8 13,5 16 9 27 15 W 1009,0 60 0 0,0
19.07.2017 20:00:00 31,0 13,3 18 10 27 14 ZW 1008,2 55 7 0,0
19.07.2017 19:00:00 32,2 11,9 18 10 30 16 ZZW 1007,7 27 52 0,0
19.07.2017 18:00:00 33,3 11,8 19 10 36 19 Z 1007,6 18 60 0,0
19.07.2017 17:00:00 33,2 11,1 20 11 36 19 ZW 1008,5 16 58 0,0
19.07.2017 16:00:00 32,1 11,8 12 6 30 16 W 1009,7 43 19 0,0
19.07.2017 15:00:00 30,6 12,0 16 9 37 20 WZW 1010,4 52 10 0,0
19.07.2017 14:00:00 31,4 12,2 19 10 39 21 WZW 1010,7 20 43 0,0
19.07.2017 13:00:00 29,8 13,1 23 12 37 20 ZW 1011,2 60 39 0,0
19.07.2017 12:00:00 29,9 13,2 24 13 37 20 ZW 1011,1 60 38 0,0
19.07.2017 11:00:00 27,8 13,0 12 6 41 22 ZZO 1010,7 17 39 0,0
19.07.2017 10:00:00 27,6 12,8 18 10 31 17 Z 1011,5 53 58 0,0
19.07.2017 09:00:00 25,4 12,6 20 11 30 16 Z 1011,8 60 60 0,0
19.07.2017 08:00:00 23,4 11,8 21 11 29 15 ZZO 1012,0 59 60 0,0
19.07.2017 07:00:00 21,6 11,3 21 11 27 15 ZZO 1011,7 29 26 0,0
19.07.2017 06:00:00 19,9 12,4 14 8 19 10 ZO 1011,8 59 0 0,0
19.07.2017 05:00:00 20,9 13,3 16 9 24 13 ZZO 1011,7 58 0 0,0
19.07.2017 04:00:00 21,6 14,0 19 10 28 15 ZZO 1011,7 58 0 0,0
19.07.2017 03:00:00 21,7 14,6 21 11 24 13 ZO 1011,8 56 0 0,0
19.07.2017 02:00:00 23,4 14,7 18 10 25 14 OZO 1011,7 59 0 0,0
19.07.2017 01:00:00 23,4 14,9 17 9 25 14 O 1011,9 56 0 0,0
19.07.2017 00:00:00 24,4 15,1 18 10 24 13 OZO 1012,0 60 0 0,0
18.07.2017 23:00:00 25,1 15,4 19 11 26 14 OZO 1012,0 60 0 0,0
18.07.2017 22:00:00 25,8 15,2 17 9 23 12 O 1012,2 51 0 0,0
18.07.2017 21:00:00 28,2 14,8 15 8 27 15 O 1012,0 56 28 0,0
18.07.2017 20:00:00 30,2 15,1 18 10 34 18 O 1011,8 45 57 0,0
18.07.2017 19:00:00 30,5 15,4 21 12 36 20 O 1011,9 36 12 0,0
18.07.2017 18:00:00 30,7 15,2 24 13 36 19 O 1012,1 18 44 0,0
18.07.2017 17:00:00 32,0 14,2 12 7 29 16 Z 1012,5 8 38 0,0
18.07.2017 16:00:00 30,6 14,2 14 8 33 18 Z 1013,3 20 22 0,0
18.07.2017 15:00:00 31,5 14,6 16 9 34 18 Z 1013,7 13 45 0,0
18.07.2017 14:00:00 29,5 14,9 13 7 33 18 ZZO 1014,5 60 42 0,0
18.07.2017 13:00:00 29,4 14,8 12 6 27 14 OZO 1015,3 18 57 0,0
18.07.2017 12:00:00 28,1 15,7 13 7 27 15 O 1015,9 20 60 0,0
18.07.2017 11:00:00 25,9 16,2 14 7 26 14 OZO 1016,7 45 60 0,0
18.07.2017 10:00:00 24,0 16,3 16 9 28 15 OZO 1017,4 37 60 0,0
18.07.2017 09:00:00 22,5 16,3 18 10 26 14 O 1017,7 41 60 0,0
18.07.2017 08:00:00 20,2 16,2 11 6 17 9 NO 1018,1 29 60 0,0
18.07.2017 07:00:00 17,5 15,3 7 4 11 6 NO 1018,6 17 37 0,0
18.07.2017 06:00:00 16,9 14,9 5 3 9 5 NO 1018,7 16 0 0,0
18.07.2017 05:00:00 17,3 15,1 6 3 10 5 N 1018,7 22 0 0,0
18.07.2017 04:00:00 18,2 14,9 8 4 10 5 NNO 1019,0 21 0 0,0
18.07.2017 03:00:00 19,3 15,2 3 2 14 8 NNW 1019,2 26 0 0,0
18.07.2017 02:00:00 19,8 15,2 11 6 28 15 ONO 1019,2 33 0 0,0
18.07.2017 01:00:00 20,9 15,4 20 11 29 15 O 1019,0 38 0 0,0
18.07.2017 00:00:00 21,9 15,5 20 11 25 14 O 1019,0 55 0 0,0
17.07.2017 23:00:00 23,0 15,3 16 9 22 12 ONO 1018,8 60 0 0,0
17.07.2017 22:00:00 23,5 14,8 14 8 18 10 ONO 1018,6 59 4 0,0
17.07.2017 21:00:00 26,1 14,2 13 7 23 12 ONO 1018,1 60 37 0,0
17.07.2017 20:00:00 27,3 14,0 14 7 25 14 NNO 1017,9 19 33 0,0
17.07.2017 19:00:00 28,5 14,0 9 5 23 12 NO 1017,8 58 14 0,0
17.07.2017 18:00:00 27,9 14,2 11 6 22 12 NNW 1018,2 57 16 0,0
17.07.2017 17:00:00 27,6 14,2 9 5 23 12 N 1018,7 55 5 0,0
17.07.2017 16:00:00 27,9 14,2 14 8 31 17 NNO 1019,0 57 30 0,0
17.07.2017 15:00:00 27,7 13,6 9 5 21 11 N 1019,5 59 42 0,0
17.07.2017 14:00:00 28,5 13,6 9 5 29 16 NW 1019,8 60 36 0,0
17.07.2017 13:00:00 25,9 14,4 8 4 33 18 WNW 1020,4 46 29 0,0
17.07.2017 12:00:00 26,7 15,4 8 4 23 12 NW 1020,6 20 52 0,0
17.07.2017 11:00:00 25,3 16,2 9 5 19 10 NW 1021,0 50 51 0,0
17.07.2017 10:00:00 23,4 16,4 4 2 13 7 NNW 1021,6 24 56 0,0

tt = temperatuur
td = dauwpunt
ff = windsnelheid
fx = windstoten
dd = windrichting
ppp = luchtdruk
vv = zicht
sd = Zonneschijnduur
rr = neerslag

Weerstations in de omgeving